#timestamp,LO_Frequency,Hit,StdDev 
1580871615.7,286047045.4,N
1580871635.5,286047040.2,N
1580871655.4,286047037.4,N
1580871675.2,286047041.4,N
1580871695.0,286047042.4,N
1580871696.0,286047042.4,N
1580871715.8,286047040.3,N
1580871735.6,286047049.0,N
1580871755.5,286047045.4,N
1580871775.3,286047035.1,N
1580871795.1,286047032.4,N
1580871815.9,286047029.8,N
1580871835.7,286047022.2,N
1580871855.6,286047019.0,N
1580871875.4,286047014.4,N
1580871895.2,286047013.4,N
1580871915.1,286047011.6,N
1580871916.0,286047011.6,N
1580871935.8,286047009.7,N
1580871955.6,286047009.1,N
1580871975.5,286047005.2,N
1580871995.3,286047003.9,N
1580872015.1,286047007.9,N
1580872035.9,286047006.1,N
1580872055.7,286047010.8,N
1580872075.6,286047007.5,N
1580872095.4,286047001.8,N
1580872115.2,286047001.6,N
1580872135.1,286047001.3,N
1580872136.0,286047001.3,N
1580872155.8,286047006.1,N
1580872175.7,286047010.0,N
1580872195.5,286047014.9,N
1580872215.3,286047012.8,N
1580872235.2,286047018.4,N
1580872255.9,286047014.5,N
1580872275.7,286047018.0,N
1580872295.6,286047016.2,N
1580872315.4,286047029.2,N
1580872335.3,286047036.5,Y
1580872355.1,286047021.5,P
1580872356.0,286047021.5,P
1580872375.8,286047026.3,P
1580872395.7,286047024.7,Y
1580872415.5,286047008.7,P
1580872435.3,286047021.9,P
1580872455.2,286047024.5,P
1580872475.0,286047022.9,Y
1580872475.9,286047022.9,P
1580872495.8,286046998.4,N
1580872515.6,286046992.8,N
1580872535.4,286046993.0,N
1580872555.3,286046994.0,N
1580872575.1,286046988.6,N
1580872595.8,286047001.9,N
1580872615.7,286047000.7,N
1580872635.5,286046996.9,N
1580872655.4,286046993.6,N
1580872675.2,286046993.5,N
1580872695.0,286046992.4,N
1580872695.9,286046992.4,N
1580872715.8,286046989.2,N
1580872735.6,286046990.8,N
1580872755.4,286046996.1,N
1580872775.3,286046998.4,N
1580872795.1,286046998.1,N
1580872815.9,286046994.9,N
1580872835.7,286046990.6,N
1580872855.5,286046985.5,N
1580872875.4,286046981.2,N
1580872895.2,286046987.1,N
1580872915.0,286046988.8,N
1580872915.9,286046988.8,N
1580872935.8,286046991.1,N
1580872955.6,286046997.5,N
1580872975.5,286047002.9,N
1580872995.3,286047009.2,N
1580873015.1,286047001.8,N
1580873035.9,286047003.9,N
1580873055.7,286047003.3,N
1580873075.5,286047009.2,N
1580873095.4,286047003.5,N
1580873115.2,286046998.1,N
1580873135.1,286047006.3,N
1580873136.0,286047006.3,N
1580873185.8,286047023.5,E
1580873195.8,286047020.0,N
1580873215.6,286047007.3,P
1580873235.4,286047016.5,N
1580873255.3,286047015.8,N
1580873275.1,286047018.7,Y
1580873295.8,286046996.5,P
1580873315.7,286046992.1,N
1580873335.5,286046995.1,N
1580873355.4,286046992.9,N
1580873375.2,286046999.3,N
1580873395.0,286047000.4,N
1580873395.9,286047000.4,N
1580873415.8,286046995.5,N
1580873435.6,286046990.4,N
1580873455.4,286046988.2,N
1580873505.3,286046988.7,E
1580873515.2,286046996.0,N
1580873535.1,286046996.5,P
1580873536.0,286046996.5,P
1580873555.8,286046997.5,Y
1580873575.7,286047005.9,P
1580873595.5,286047018.7,P
1580873615.3,286047017.3,N
1580873635.2,286047016.0,N
1580873655.9,286047020.2,N
1580873675.7,286047012.8,N
1580873695.6,286047013.5,N
1580873715.4,286047015.4,N
1580873735.2,286047014.2,N
1580873755.1,286047011.4,N
1580873756.0,286047011.4,N
1580873775.8,286047009.6,N
1580873795.7,286047012.1,N
1580873815.5,286047025.9,Y
1580873835.3,286047009.6,P
1580873855.2,286047011.3,P
1580873875.0,286047009.1,P
1580873875.9,286047009.1,Y
1580873895.8,286046999.1,P
1580873915.6,286046996.2,N
1580873935.4,286046992.5,N
1580873955.3,286046986.8,N
1580873975.1,286046976.5,N
1580873995.9,286046967.6,Y
1580874015.7,286046967.2,P
1580874035.5,286046967.3,N
1580874055.4,286046962.7,P
1580874075.2,286046960.5,Y
1580874095.0,286046993.0,P
1580874096.0,286046993.0,N
1580874115.8,286046996.2,N
1580874135.6,286046997.8,N
1580874155.5,286046996.4,N
1580874175.3,286046996.0,N
1580874195.1,286046990.7,N
1580874215.9,286046990.4,N
1580874235.7,286046996.3,N
1580874285.6,286047024.6,E
1580874295.5,286047016.7,N
1580874315.3,286047007.5,P
1580874335.2,286047003.9,N
1580874355.0,286047006.2,N
1580874355.9,286047006.2,N
1580874375.8,286047006.9,N
1580874395.6,286047006.3,N
1580874415.4,286047012.5,Y
1580874435.3,286047005.2,P
1580874455.1,286047000.2,N
1580874475.9,286047001.3,N
1580874495.7,286047007.0,N
1580874515.5,286047003.9,N
1580874535.4,286046998.6,N
1580874555.2,286046994.9,N
1580874575.0,286046990.7,N
1580874575.9,286046990.7,N
1580874595.8,286046989.1,N
1580874615.6,286046985.8,N
1580874635.5,286046990.7,N
1580874655.3,286046995.1,N
1580874675.1,286046991.8,N
1580874695.9,286046992.8,N
1580874715.7,286046995.9,N
1580874735.6,286046990.0,N
1580874755.4,286046984.1,N
1580874775.2,286046991.8,N
1580874795.1,286046986.1,N
1580874796.0,286046986.1,N
1580874815.8,286046981.5,N
1580874835.6,286046981.8,N
1580874855.5,286046987.7,N
1580874875.3,286046982.8,N
1580874895.2,286046983.6,N
1580874915.9,286046983.5,N
1580874935.7,286046979.8,N
1580874955.6,286046982.6,N
1580874975.4,286046980.0,N
1580874995.3,286046977.4,N
1580875015.1,286046996.2,N
1580875016.0,286046996.2,N
1580875035.8,286047004.6,N
1580875055.7,286047007.7,N
1580875075.5,286047009.0,N
1580875095.3,286046996.6,N
1580875115.2,286046992.5,N
1580875135.0,286046991.1,N
1580875135.9,286046991.1,N
1580875155.8,286046983.8,N
1580875175.6,286046986.5,N
1580875195.4,286046991.3,N
